Time,TemperatureF,DewpointF,PressureIn,WindDirection,WindDirectionDegrees,WindSpeedMPH,WindSpeedGustMPH,Humidity,HourlyPrecipIn,Conditions,Clouds,dailyrainin,SolarRadiationWatts/m^2,SoftwareType,DateUTC
2013-07-10 00:01:00,73.2,64.8,29.90,NNE,13,2.0,11.0,75,0.00,,,0.59,0.0,meteohub,2013-07-10 05:01:00,
2013-07-10 00:08:00,73.0,64.6,29.90,NW,307,5.0,11.0,75,0.00,,,0.59,0.0,meteohub,2013-07-10 05:08:00,
2013-07-10 00:14:00,72.9,64.8,29.90,SSW,210,2.0,9.0,76,0.00,,,0.00,0.0,meteohub,2013-07-10 05:14:00,
2013-07-10 00:20:00,72.5,64.9,29.90,North,5,4.0,9.0,77,0.00,,,0.00,0.0,meteohub,2013-07-10 05:20:00,
2013-07-10 00:26:00,72.3,64.8,29.90,NE,51,3.0,9.0,77,0.00,,,0.00,0.0,meteohub,2013-07-10 05:26:00,
2013-07-10 00:32:00,72.3,64.8,29.91,ENE,65,1.0,9.0,77,0.00,,,0.00,0.0,meteohub,2013-07-10 05:32:00,
2013-07-10 00:37:00,72.3,64.4,29.91,ESE,107,0.0,10.0,76,0.00,,,0.00,0.0,meteohub,2013-07-10 05:37:00,
2013-07-10 00:43:00,72.1,64.6,29.91,North,0,2.0,10.0,77,0.00,,,0.00,0.0,meteohub,2013-07-10 05:43:00,
2013-07-10 00:49:00,72.1,64.2,29.91,West,267,1.0,12.0,76,0.00,,,0.00,0.0,meteohub,2013-07-10 05:49:00,
2013-07-10 00:55:00,72.0,64.0,29.92,East,81,3.0,11.0,76,0.00,,,0.00,0.0,meteohub,2013-07-10 05:55:00,
2013-07-10 01:01:00,71.8,64.2,29.91,NW,316,0.0,11.0,77,0.00,,,0.00,0.0,meteohub,2013-07-10 06:01:00,
2013-07-10 01:07:00,71.2,63.7,29.92,NW,312,1.0,11.0,77,0.00,,,0.00,0.0,meteohub,2013-07-10 06:07:00,
2013-07-10 01:14:00,70.9,63.3,29.92,North,355,1.0,14.0,77,0.00,,,0.00,0.0,meteohub,2013-07-10 06:14:00,
2013-07-10 01:20:00,70.7,63.5,29.91,WNW,298,2.0,14.0,78,0.00,,,0.00,0.0,meteohub,2013-07-10 06:20:00,
2013-07-10 01:26:00,70.3,63.5,29.92,NNW,329,1.0,10.0,79,0.00,,,0.00,0.0,meteohub,2013-07-10 06:26:00,
2013-07-10 01:32:00,70.2,63.3,29.92,SSE,153,2.0,8.0,79,0.00,,,0.00,0.0,meteohub,2013-07-10 06:32:00,
2013-07-10 01:38:00,69.8,63.3,29.93,NW,323,3.0,7.0,80,0.00,,,0.00,0.0,meteohub,2013-07-10 06:38:00,
2013-07-10 01:44:00,69.6,63.1,29.93,North,0,2.0,9.0,80,0.00,,,0.00,0.0,meteohub,2013-07-10 06:44:00,
2013-07-10 01:51:00,69.4,62.6,29.93,North,11,0.0,9.0,79,0.00,,,0.00,0.0,meteohub,2013-07-10 06:51:00,
2013-07-10 01:57:00,69.3,62.4,29.93,NNE,13,0.0,9.0,79,0.00,,,0.00,0.0,meteohub,2013-07-10 06:57:00,
2013-07-10 02:03:00,69.1,62.2,29.94,NNW,329,0.0,9.0,79,0.00,,,0.00,0.0,meteohub,2013-07-10 07:03:00,
2013-07-10 02:09:00,68.7,61.9,29.94,NNE,26,5.0,10.0,79,0.00,,,0.00,0.0,meteohub,2013-07-10 07:09:00,
2013-07-10 02:15:00,68.5,61.3,29.94,West,273,10.0,10.0,78,0.00,,,0.00,0.0,meteohub,2013-07-10 07:15:00,
2013-07-10 02:21:00,68.4,61.5,29.94,West,259,0.0,8.0,79,0.00,,,0.00,0.0,meteohub,2013-07-10 07:21:00,
2013-07-10 02:28:00,68.0,61.2,29.94,NNE,27,0.0,10.0,79,0.00,,,0.00,0.0,meteohub,2013-07-10 07:28:00,
2013-07-10 02:34:00,67.6,61.0,29.95,North,5,1.0,9.0,79,0.00,,,0.00,0.0,meteohub,2013-07-10 07:34:00,
2013-07-10 02:47:00,67.3,60.6,29.96,NNW,328,2.0,7.0,79,0.00,,,0.00,0.0,meteohub,2013-07-10 07:47:00,
2013-07-10 02:53:00,66.9,59.9,29.96,NNE,18,3.0,11.0,78,0.00,,,0.00,0.0,meteohub,2013-07-10 07:53:00,
2013-07-10 02:59:00,66.7,59.4,29.96,North,355,4.0,12.0,77,0.00,,,0.00,0.0,meteohub,2013-07-10 07:59:00,
2013-07-10 03:05:00,66.6,59.2,29.96,North,5,0.0,12.0,77,0.00,,,0.00,0.0,meteohub,2013-07-10 08:05:00,
2013-07-10 03:12:00,66.2,58.5,29.97,WNW,282,7.0,12.0,76,0.00,,,0.00,0.0,meteohub,2013-07-10 08:12:00,
2013-07-10 03:18:00,65.8,58.1,29.97,NW,320,2.0,12.0,76,0.00,,,0.00,0.0,meteohub,2013-07-10 08:18:00,
2013-07-10 03:24:00,65.7,57.9,29.97,North,355,4.0,12.0,76,0.00,,,0.00,0.0,meteohub,2013-07-10 08:24:00,
2013-07-10 03:30:00,65.5,57.4,29.97,North,355,0.0,12.0,75,0.00,,,0.00,0.0,meteohub,2013-07-10 08:30:00,
2013-07-10 03:36:00,65.3,57.2,29.97,NNE,13,0.0,10.0,75,0.00,,,0.00,0.0,meteohub,2013-07-10 08:36:00,
2013-07-10 03:42:00,64.9,56.8,29.98,NNE,27,2.0,12.0,75,0.00,,,0.00,0.0,meteohub,2013-07-10 08:42:00,
2013-07-10 03:49:00,64.8,56.7,29.99,NNE,32,7.0,12.0,75,0.00,,,0.00,0.0,meteohub,2013-07-10 08:49:00,
2013-07-10 03:55:00,64.8,57.0,29.99,NNE,20,4.0,13.0,76,0.00,,,0.00,0.0,meteohub,2013-07-10 08:55:00,
2013-07-10 04:01:00,64.6,56.8,29.99,North,0,0.0,13.0,76,0.00,,,0.00,0.0,meteohub,2013-07-10 09:01:00,
2013-07-10 04:07:00,64.2,56.8,29.99,NNE,25,0.0,9.0,77,0.00,,,0.00,0.0,meteohub,2013-07-10 09:07:00,
2013-07-10 04:13:00,64.0,57.0,29.99,North,5,2.0,7.0,78,0.00,,,0.00,0.0,meteohub,2013-07-10 09:13:00,
2013-07-10 04:19:00,64.0,57.4,30.00,NNW,336,1.0,7.0,79,0.00,,,0.00,0.0,meteohub,2013-07-10 09:19:00,
2013-07-10 04:26:00,63.9,57.6,30.00,NNE,25,3.0,9.0,80,0.00,,,0.00,0.0,meteohub,2013-07-10 09:26:00,
2013-07-10 04:32:00,63.7,57.4,30.01,NNW,347,2.0,9.0,80,0.00,,,0.00,0.0,meteohub,2013-07-10 09:32:00,
2013-07-10 04:38:00,63.7,57.4,30.01,NW,325,2.0,6.0,80,0.00,,,0.00,0.0,meteohub,2013-07-10 09:38:00,
2013-07-10 04:44:00,63.3,57.4,30.01,North,351,1.0,6.0,81,0.00,,,0.00,0.0,meteohub,2013-07-10 09:44:00,
2013-07-10 04:50:00,63.1,57.6,30.01,North,349,0.0,6.0,82,0.00,,,0.00,0.0,meteohub,2013-07-10 09:50:00,
2013-07-10 04:56:00,63.1,57.6,30.01,NNE,30,4.0,6.0,82,0.00,,,0.00,0.0,meteohub,2013-07-10 09:56:00,
2013-07-10 05:02:00,63.0,57.4,30.02,NNE,18,3.0,6.0,82,0.00,,,0.00,0.0,meteohub,2013-07-10 10:02:00,
2013-07-10 05:07:00,63.0,57.4,30.02,North,0,3.0,8.0,82,0.00,,,0.00,0.0,meteohub,2013-07-10 10:07:00,
2013-07-10 05:13:00,62.8,57.2,30.02,NNE,16,3.0,8.0,82,0.00,,,0.00,0.0,meteohub,2013-07-10 10:13:00,
2013-07-10 05:19:00,62.8,57.2,30.02,West,262,3.0,10.0,82,0.00,,,0.00,0.0,meteohub,2013-07-10 10:19:00,
2013-07-10 05:25:00,62.4,57.2,30.02,North,5,1.0,10.0,83,0.00,,,0.00,0.0,meteohub,2013-07-10 10:25:00,
2013-07-10 05:32:00,62.2,57.0,30.02,North,0,1.0,7.0,83,0.00,,,0.00,0.0,meteohub,2013-07-10 10:32:00,
2013-07-10 05:38:00,62.1,57.2,30.02,North,355,0.0,6.0,84,0.00,,,0.00,5.0,meteohub,2013-07-10 10:38:00,
2013-07-10 05:44:00,62.1,57.2,30.03,NNW,338,1.0,6.0,84,0.00,,,0.00,9.0,meteohub,2013-07-10 10:44:00,
2013-07-10 05:50:00,61.9,57.0,30.03,WNW,287,0.0,5.0,84,0.00,,,0.00,12.0,meteohub,2013-07-10 10:50:00,
2013-07-10 05:56:00,61.9,57.0,30.04,NW,319,2.0,5.0,84,0.00,,,0.00,16.0,meteohub,2013-07-10 10:56:00,
2013-07-10 06:02:00,61.7,56.8,30.04,North,351,1.0,5.0,84,0.00,,,0.00,19.0,meteohub,2013-07-10 11:02:00,
2013-07-10 06:07:00,61.5,56.7,30.04,NW,315,1.0,8.0,84,0.00,,,0.00,23.0,meteohub,2013-07-10 11:07:00,
2013-07-10 06:13:00,61.5,57.0,30.04,NW,319,0.0,8.0,85,0.00,,,0.00,25.0,meteohub,2013-07-10 11:13:00,
2013-07-10 06:19:00,61.5,57.0,30.04,West,263,1.0,8.0,85,0.00,,,0.00,30.0,meteohub,2013-07-10 11:19:00,
2013-07-10 06:25:00,61.5,57.0,30.04,North,0,2.0,5.0,85,0.00,,,0.00,33.0,meteohub,2013-07-10 11:25:00,
2013-07-10 06:32:00,61.5,56.7,30.04,WSW,255,1.0,5.0,84,0.00,,,0.00,54.0,meteohub,2013-07-10 11:32:00,
2013-07-10 06:38:00,61.9,57.0,30.05,WSW,254,1.0,6.0,84,0.00,,,0.00,42.0,meteohub,2013-07-10 11:38:00,
2013-07-10 06:44:00,62.1,57.2,30.04,NNW,347,1.0,6.0,84,0.00,,,0.00,47.0,meteohub,2013-07-10 11:44:00,
2013-07-10 06:50:00,62.1,57.2,30.05,NNW,327,3.0,6.0,84,0.00,,,0.00,63.0,meteohub,2013-07-10 11:50:00,
2013-07-10 06:57:00,62.2,57.4,30.05,NW,317,1.0,6.0,84,0.00,,,0.00,51.0,meteohub,2013-07-10 11:57:00,
2013-07-10 07:03:00,62.2,57.4,30.05,West,263,2.0,6.0,84,0.00,,,0.00,54.0,meteohub,2013-07-10 12:03:00,
2013-07-10 07:09:00,62.2,57.0,30.05,NNW,339,4.0,7.0,83,0.00,,,0.00,77.0,meteohub,2013-07-10 12:09:00,
2013-07-10 07:15:00,62.4,57.2,30.06,North,355,0.0,7.0,83,0.00,,,0.00,93.0,meteohub,2013-07-10 12:15:00,
2013-07-10 07:22:00,62.6,57.4,30.05,NW,313,0.0,7.0,83,0.00,,,0.00,69.0,meteohub,2013-07-10 12:22:00,
2013-07-10 07:28:00,62.8,57.6,30.06,NW,307,1.0,7.0,83,0.00,,,0.00,70.0,meteohub,2013-07-10 12:28:00,
2013-07-10 07:34:00,63.1,57.6,30.05,North,5,0.0,7.0,82,0.00,,,0.00,74.0,meteohub,2013-07-10 12:34:00,
2013-07-10 07:40:00,63.3,57.7,30.05,WNW,303,2.0,6.0,82,0.00,,,0.00,232.0,meteohub,2013-07-10 12:40:00,
2013-07-10 07:46:00,63.9,57.9,30.05,WNW,291,0.0,4.0,81,0.00,,,0.00,246.0,meteohub,2013-07-10 12:46:00,
2013-07-10 07:53:00,64.2,57.9,30.05,NE,34,4.0,4.0,80,0.00,,,0.00,265.0,meteohub,2013-07-10 12:53:00,
2013-07-10 07:59:00,64.9,58.6,30.05,North,350,3.0,11.0,80,0.00,,,0.00,285.0,meteohub,2013-07-10 12:59:00,
2013-07-10 08:05:00,65.5,58.5,30.05,NNE,25,2.0,11.0,78,0.00,,,0.00,308.0,meteohub,2013-07-10 13:05:00,
2013-07-10 08:11:00,65.8,58.5,30.05,NW,317,1.0,9.0,77,0.00,,,0.00,323.0,meteohub,2013-07-10 13:11:00,
2013-07-10 08:17:00,66.2,58.5,30.05,North,350,6.0,10.0,76,0.00,,,0.00,341.0,meteohub,2013-07-10 13:17:00,
2013-07-10 08:22:00,66.4,59.0,30.05,NE,38,0.0,10.0,77,0.00,,,0.00,357.0,meteohub,2013-07-10 13:22:00,
2013-07-10 08:28:00,66.9,58.8,30.05,NNW,346,0.0,7.0,75,0.00,,,0.00,381.0,meteohub,2013-07-10 13:28:00,
2013-07-10 08:34:00,67.6,59.0,30.05,North,9,1.0,7.0,74,0.00,,,0.00,403.0,meteohub,2013-07-10 13:34:00,
2013-07-10 08:40:00,68.4,59.4,30.05,North,355,3.0,5.0,73,0.00,,,0.00,422.0,meteohub,2013-07-10 13:40:00,
2013-07-10 08:46:00,68.7,59.7,30.05,NE,43,2.0,8.0,73,0.00,,,0.00,441.0,meteohub,2013-07-10 13:46:00,
2013-07-10 08:53:00,69.1,58.8,30.05,North,5,1.0,8.0,70,0.00,,,0.00,459.0,meteohub,2013-07-10 13:53:00,
2013-07-10 08:59:00,69.1,58.8,30.05,NNE,26,3.0,6.0,70,0.00,,,0.00,476.0,meteohub,2013-07-10 13:59:00,
2013-07-10 09:05:00,68.7,58.1,30.05,NNE,24,4.0,6.0,69,0.00,,,0.00,499.0,meteohub,2013-07-10 14:05:00,
2013-07-10 09:11:00,68.5,58.3,30.05,WNW,290,3.0,8.0,70,0.00,,,0.00,513.0,meteohub,2013-07-10 14:11:00,
2013-07-10 09:17:00,69.1,58.8,30.05,North,10,6.0,9.0,70,0.00,,,0.00,529.0,meteohub,2013-07-10 14:17:00,
2013-07-10 09:22:00,69.4,58.5,30.05,NE,42,4.0,9.0,68,0.00,,,0.00,545.0,meteohub,2013-07-10 14:22:00,
2013-07-10 09:28:00,69.4,58.5,30.05,NW,308,2.0,10.0,68,0.00,,,0.00,563.0,meteohub,2013-07-10 14:28:00,
2013-07-10 09:34:00,70.0,59.4,30.05,NW,310,8.0,10.0,69,0.00,,,0.00,582.0,meteohub,2013-07-10 14:34:00,
2013-07-10 09:40:00,70.3,58.8,30.04,NE,46,1.0,8.0,67,0.00,,,0.00,599.0,meteohub,2013-07-10 14:40:00,
2013-07-10 09:46:00,70.5,58.6,30.04,NE,51,1.0,9.0,66,0.00,,,0.00,612.0,meteohub,2013-07-10 14:46:00,
2013-07-10 09:53:00,71.1,59.2,30.04,NE,38,0.0,9.0,66,0.00,,,0.00,629.0,meteohub,2013-07-10 14:53:00,
2013-07-10 09:59:00,71.2,59.4,30.04,North,0,1.0,8.0,66,0.00,,,0.00,642.0,meteohub,2013-07-10 14:59:00,
2013-07-10 10:05:00,70.9,59.4,30.05,NNE,23,4.0,8.0,67,0.00,,,0.00,659.0,meteohub,2013-07-10 15:05:00,
2013-07-10 10:11:00,70.9,59.4,30.04,NE,39,2.0,10.0,67,0.00,,,0.00,673.0,meteohub,2013-07-10 15:11:00,
2013-07-10 10:17:00,71.4,59.5,30.04,North,355,5.0,10.0,66,0.00,,,0.00,694.0,meteohub,2013-07-10 15:17:00,
2013-07-10 10:22:00,71.4,60.3,30.04,NE,42,2.0,10.0,68,0.00,,,0.00,712.0,meteohub,2013-07-10 15:22:00,
2013-07-10 10:28:00,72.1,60.1,30.04,ENE,71,5.0,10.0,66,0.00,,,0.00,719.0,meteohub,2013-07-10 15:28:00,
2013-07-10 10:34:00,72.7,60.3,30.04,ENE,66,3.0,10.0,65,0.00,,,0.00,744.0,meteohub,2013-07-10 15:34:00,
2013-07-10 10:40:00,72.3,59.9,30.04,NNE,14,1.0,7.0,65,0.00,,,0.00,759.0,meteohub,2013-07-10 15:40:00,
2013-07-10 10:46:00,72.9,60.4,30.04,NNW,346,5.0,11.0,65,0.00,,,0.00,761.0,meteohub,2013-07-10 15:46:00,
2013-07-10 10:53:00,73.2,60.3,30.04,North,11,6.0,11.0,64,0.00,,,0.00,779.0,meteohub,2013-07-10 15:53:00,
2013-07-10 10:59:00,73.6,61.2,30.04,North,0,2.0,12.0,65,0.00,,,0.00,805.0,meteohub,2013-07-10 15:59:00,
2013-07-10 11:05:00,73.8,59.9,30.04,NNE,26,5.0,12.0,62,0.00,,,0.00,805.0,meteohub,2013-07-10 16:05:00,
2013-07-10 11:11:00,73.0,60.1,30.04,NNE,22,0.0,8.0,64,0.00,,,0.00,826.0,meteohub,2013-07-10 16:11:00,
2013-07-10 11:17:00,73.6,59.4,30.04,NE,54,2.0,10.0,61,0.00,,,0.00,821.0,meteohub,2013-07-10 16:17:00,
2013-07-10 11:22:00,73.9,59.2,30.04,ENE,68,3.0,10.0,60,0.00,,,0.00,838.0,meteohub,2013-07-10 16:22:00,
2013-07-10 11:28:00,73.6,58.8,30.04,North,355,9.0,15.0,60,0.00,,,0.00,854.0,meteohub,2013-07-10 16:28:00,
2013-07-10 11:34:00,73.4,58.3,30.04,North,0,3.0,15.0,59,0.00,,,0.00,853.0,meteohub,2013-07-10 16:34:00,
2013-07-10 11:40:00,73.4,57.7,30.04,NNW,345,4.0,15.0,58,0.00,,,0.00,874.0,meteohub,2013-07-10 16:40:00,
2013-07-10 11:46:00,73.8,58.1,30.04,North,5,9.0,13.0,58,0.00,,,0.00,882.0,meteohub,2013-07-10 16:46:00,
2013-07-10 11:53:00,73.9,56.8,30.04,North,355,5.0,13.0,55,0.00,,,0.00,886.0,meteohub,2013-07-10 16:53:00,
2013-07-10 11:59:00,74.5,56.7,30.03,NNE,13,2.0,11.0,54,0.00,,,0.00,893.0,meteohub,2013-07-10 16:59:00,
2013-07-10 12:05:00,73.9,57.2,30.04,NE,53,3.0,15.0,56,0.00,,,0.00,888.0,meteohub,2013-07-10 17:05:00,
2013-07-10 12:11:00,74.5,57.2,30.03,NW,311,2.0,15.0,55,0.00,,,0.00,905.0,meteohub,2013-07-10 17:11:00,
2013-07-10 12:17:00,74.8,58.1,30.03,NNE,13,3.0,15.0,56,0.00,,,0.00,912.0,meteohub,2013-07-10 17:17:00,
2013-07-10 12:23:00,74.8,56.5,30.03,North,0,4.0,15.0,53,0.00,,,0.00,926.0,meteohub,2013-07-10 17:23:00,
2013-07-10 12:30:00,74.5,56.3,30.03,NNE,28,3.0,13.0,53,0.00,,,0.00,918.0,meteohub,2013-07-10 17:30:00,
2013-07-10 12:36:00,74.7,56.5,30.03,NNW,331,2.0,14.0,53,0.00,,,0.00,925.0,meteohub,2013-07-10 17:36:00,
2013-07-10 12:42:00,75.0,56.1,30.03,NNE,32,3.0,14.0,52,0.00,,,0.00,928.0,meteohub,2013-07-10 17:42:00,
2013-07-10 12:48:00,75.0,57.7,30.03,NNE,13,1.0,14.0,55,0.00,,,0.00,939.0,meteohub,2013-07-10 17:48:00,
2013-07-10 12:54:00,75.0,56.7,30.03,ENE,67,11.0,14.0,53,0.00,,,0.00,944.0,meteohub,2013-07-10 17:54:00,
2013-07-10 13:01:00,75.4,57.0,30.03,North,10,3.0,12.0,53,0.00,,,0.00,942.0,meteohub,2013-07-10 18:01:00,
2013-07-10 13:07:00,75.6,56.1,30.03,NNE,30,4.0,12.0,51,0.00,,,0.00,947.0,meteohub,2013-07-10 18:07:00,
2013-07-10 13:13:00,75.4,57.0,30.03,NNW,346,6.0,14.0,53,0.00,,,0.00,946.0,meteohub,2013-07-10 18:13:00,
2013-07-10 13:19:00,75.4,57.0,30.03,NW,323,2.0,14.0,53,0.00,,,0.00,942.0,meteohub,2013-07-10 18:19:00,
2013-07-10 13:25:00,75.7,56.3,30.02,NE,46,2.0,11.0,51,0.00,,,0.00,940.0,meteohub,2013-07-10 18:25:00,
2013-07-10 13:32:00,76.1,58.3,30.02,ENE,57,1.0,11.0,54,0.00,,,0.00,949.0,meteohub,2013-07-10 18:32:00,
2013-07-10 13:38:00,76.6,57.7,30.02,NNW,340,3.0,11.0,52,0.00,,,0.00,940.0,meteohub,2013-07-10 18:38:00,
2013-07-10 13:44:00,76.1,56.7,30.02,NNW,335,3.0,10.0,51,0.00,,,0.00,947.0,meteohub,2013-07-10 18:44:00,
2013-07-10 13:50:00,76.6,57.7,30.02,North,0,1.0,10.0,52,0.00,,,0.00,947.0,meteohub,2013-07-10 18:50:00,
2013-07-10 13:56:00,76.6,56.7,30.02,West,281,5.0,13.0,50,0.00,,,0.00,935.0,meteohub,2013-07-10 18:56:00,
2013-07-10 14:02:00,76.5,57.0,30.02,NNW,340,10.0,13.0,51,0.00,,,0.00,933.0,meteohub,2013-07-10 19:02:00,
2013-07-10 14:09:00,76.5,56.5,30.01,NNE,14,5.0,14.0,50,0.00,,,0.00,935.0,meteohub,2013-07-10 19:09:00,
2013-07-10 14:15:00,76.3,57.4,30.01,NNE,16,3.0,14.0,52,0.00,,,0.00,916.0,meteohub,2013-07-10 19:15:00,
2013-07-10 14:21:00,76.3,58.5,30.01,NNW,342,6.0,14.0,54,0.00,,,0.00,923.0,meteohub,2013-07-10 19:21:00,
2013-07-10 14:27:00,76.5,58.1,30.01,NW,326,8.0,11.0,53,0.00,,,0.00,921.0,meteohub,2013-07-10 19:27:00,
2013-07-10 14:33:00,76.6,56.1,30.02,North,5,4.0,15.0,49,0.00,,,0.00,914.0,meteohub,2013-07-10 19:33:00,
2013-07-10 14:39:00,76.6,56.7,30.01,North,5,4.0,15.0,50,0.00,,,0.00,907.0,meteohub,2013-07-10 19:39:00,
2013-07-10 14:46:00,76.8,56.3,30.02,North,0,4.0,13.0,49,0.00,,,0.00,895.0,meteohub,2013-07-10 19:46:00,
2013-07-10 14:52:00,77.4,56.1,30.01,ENE,71,7.0,13.0,48,0.00,,,0.00,889.0,meteohub,2013-07-10 19:52:00,
2013-07-10 14:58:00,77.7,57.6,30.01,NNE,13,1.0,12.0,50,0.00,,,0.00,916.0,meteohub,2013-07-10 19:58:00,
2013-07-10 15:04:00,77.5,56.3,30.02,NNE,20,1.0,10.0,48,0.00,,,0.00,221.0,meteohub,2013-07-10 20:04:00,
2013-07-10 15:10:00,77.5,56.3,30.02,North,0,1.0,10.0,48,0.00,,,0.00,882.0,meteohub,2013-07-10 20:10:00,
2013-07-10 15:16:00,77.7,57.6,30.01,NNE,26,5.0,8.0,50,0.00,,,0.00,911.0,meteohub,2013-07-10 20:16:00,
2013-07-10 15:23:00,78.1,56.8,30.01,NNE,29,2.0,8.0,48,0.00,,,0.00,842.0,meteohub,2013-07-10 20:23:00,
2013-07-10 15:29:00,78.3,57.0,30.01,NNW,341,4.0,8.0,48,0.00,,,0.00,830.0,meteohub,2013-07-10 20:29:00,
2013-07-10 15:35:00,78.3,57.6,30.01,North,5,6.0,8.0,49,0.00,,,0.00,819.0,meteohub,2013-07-10 20:35:00,
2013-07-10 15:41:00,78.1,56.8,30.01,North,9,1.0,8.0,48,0.00,,,0.00,802.0,meteohub,2013-07-10 20:41:00,
2013-07-10 15:47:00,78.1,55.6,30.01,NE,47,4.0,9.0,46,0.00,,,0.00,789.0,meteohub,2013-07-10 20:47:00,
2013-07-10 15:54:00,77.9,58.3,30.01,NE,39,3.0,13.0,51,0.00,,,0.00,807.0,meteohub,2013-07-10 20:54:00,
2013-07-10 16:00:00,78.4,59.4,30.01,NNE,23,3.0,13.0,52,0.00,,,0.00,800.0,meteohub,2013-07-10 21:00:00,
2013-07-10 16:06:00,78.6,57.9,30.01,NNE,28,3.0,8.0,49,0.00,,,0.00,777.0,meteohub,2013-07-10 21:06:00,
2013-07-10 16:12:00,78.4,56.5,30.01,NW,315,3.0,8.0,47,0.00,,,0.00,796.0,meteohub,2013-07-10 21:12:00,
2013-07-10 16:18:00,78.8,56.8,30.01,North,355,0.0,8.0,47,0.00,,,0.00,751.0,meteohub,2013-07-10 21:18:00,
2013-07-10 16:24:00,79.0,58.1,30.01,NNW,335,2.0,9.0,49,0.00,,,0.00,763.0,meteohub,2013-07-10 21:24:00,
2013-07-10 16:31:00,79.0,56.5,30.01,NW,325,1.0,9.0,46,0.00,,,0.00,726.0,meteohub,2013-07-10 21:31:00,
2013-07-10 16:37:00,79.2,57.7,30.00,NE,41,5.0,7.0,48,0.00,,,0.00,710.0,meteohub,2013-07-10 21:37:00,
2013-07-10 16:43:00,78.4,55.9,30.00,NW,304,0.0,7.0,46,0.00,,,0.00,223.0,meteohub,2013-07-10 21:43:00,
2013-07-10 16:49:00,78.4,56.5,30.01,North,355,3.0,9.0,47,0.00,,,0.00,221.0,meteohub,2013-07-10 21:49:00,
2013-07-10 16:55:00,77.5,56.8,30.00,NNE,33,1.0,10.0,49,0.00,,,0.00,677.0,meteohub,2013-07-10 21:55:00,
2013-07-10 17:01:00,77.5,56.3,30.01,NNE,21,2.0,10.0,48,0.00,,,0.00,629.0,meteohub,2013-07-10 22:01:00,
2013-07-10 17:08:00,77.7,57.0,30.00,NE,56,2.0,6.0,49,0.00,,,0.00,654.0,meteohub,2013-07-10 22:08:00,
2013-07-10 17:14:00,77.4,57.2,30.00,NE,50,2.0,7.0,50,0.00,,,0.00,135.0,meteohub,2013-07-10 22:14:00,
2013-07-10 17:20:00,77.2,58.6,30.00,NNE,22,2.0,7.0,53,0.00,,,0.00,591.0,meteohub,2013-07-10 22:20:00,
2013-07-10 17:26:00,77.7,57.0,30.00,NW,319,2.0,6.0,49,0.00,,,0.00,596.0,meteohub,2013-07-10 22:26:00,
2013-07-10 17:32:00,78.1,56.3,30.00,ENE,61,3.0,6.0,47,0.00,,,0.00,548.0,meteohub,2013-07-10 22:32:00,
2013-07-10 17:38:00,78.3,57.0,30.00,West,265,2.0,11.0,48,0.00,,,0.00,517.0,meteohub,2013-07-10 22:38:00,
2013-07-10 17:45:00,79.0,55.8,29.99,West,264,6.0,11.0,45,0.00,,,0.00,499.0,meteohub,2013-07-10 22:45:00,
2013-07-10 17:51:00,79.3,56.1,29.99,NNE,25,3.0,11.0,45,0.00,,,0.00,445.0,meteohub,2013-07-10 22:51:00,
2013-07-10 17:57:00,78.8,56.3,29.99,North,0,1.0,8.0,46,0.00,,,0.00,469.0,meteohub,2013-07-10 22:57:00,
2013-07-10 18:03:00,78.4,57.7,29.99,North,355,1.0,8.0,49,0.00,,,0.00,436.0,meteohub,2013-07-10 23:03:00,
2013-07-10 18:09:00,78.3,57.0,29.99,NNE,18,0.0,8.0,48,0.00,,,0.00,411.0,meteohub,2013-07-10 23:09:00,
2013-07-10 18:15:00,78.3,57.0,29.99,NNE,26,0.0,6.0,48,0.00,,,0.00,394.0,meteohub,2013-07-10 23:15:00,
2013-07-10 18:22:00,78.1,56.8,29.99,North,355,3.0,6.0,48,0.00,,,0.00,367.0,meteohub,2013-07-10 23:22:00,
2013-07-10 18:28:00,77.9,56.1,29.99,NE,41,2.0,5.0,47,0.00,,,0.00,332.0,meteohub,2013-07-10 23:28:00,
2013-07-10 18:34:00,77.5,56.3,29.99,NNW,347,3.0,5.0,48,0.00,,,0.00,301.0,meteohub,2013-07-10 23:34:00,
2013-07-10 18:40:00,77.5,56.3,29.99,NW,312,0.0,9.0,48,0.00,,,0.00,81.0,meteohub,2013-07-10 23:40:00,
2013-07-10 18:46:00,77.4,56.1,29.99,NW,308,0.0,4.0,48,0.00,,,0.00,137.0,meteohub,2013-07-10 23:46:00,
2013-07-10 18:53:00,77.4,56.1,29.99,NW,315,0.0,4.0,48,0.00,,,0.00,255.0,meteohub,2013-07-10 23:53:00,
2013-07-10 18:59:00,77.4,56.7,29.99,NW,317,0.0,3.0,49,0.00,,,0.00,234.0,meteohub,2013-07-10 23:59:00,
2013-07-10 19:05:00,77.2,56.5,29.99,NW,305,3.0,4.0,49,0.00,,,0.00,216.0,meteohub,2013-07-11 00:05:00,
2013-07-10 19:11:00,77.2,56.5,29.99,NW,320,0.0,4.0,49,0.00,,,0.00,197.0,meteohub,2013-07-11 00:11:00,
2013-07-10 19:17:00,77.0,57.6,30.00,NW,319,1.0,4.0,51,0.00,,,0.00,97.0,meteohub,2013-07-11 00:17:00,
2013-07-10 19:24:00,76.8,57.4,30.00,NW,316,1.0,3.0,51,0.00,,,0.00,77.0,meteohub,2013-07-11 00:24:00,
2013-07-10 19:30:00,76.5,56.5,30.00,NNW,340,0.0,3.0,50,0.00,,,0.00,70.0,meteohub,2013-07-11 00:30:00,
2013-07-10 19:36:00,76.3,57.4,30.00,NNW,342,0.0,4.0,52,0.00,,,0.00,67.0,meteohub,2013-07-11 00:36:00,
2013-07-10 19:42:00,76.1,57.7,30.00,NNW,342,0.0,4.0,53,0.00,,,0.00,60.0,meteohub,2013-07-11 00:42:00,
2013-07-10 19:48:00,75.9,57.0,30.00,NNW,342,0.0,3.0,52,0.00,,,0.00,58.0,meteohub,2013-07-11 00:48:00,
2013-07-10 19:54:00,75.9,58.1,30.00,NNW,342,1.0,2.0,54,0.00,,,0.00,54.0,meteohub,2013-07-11 00:54:00,
2013-07-10 20:01:00,75.7,57.9,30.00,NNW,342,0.0,2.0,54,0.00,,,0.00,51.0,meteohub,2013-07-11 01:01:00,
2013-07-10 20:07:00,75.4,58.1,30.00,NNW,342,0.0,1.0,55,0.00,,,0.00,44.0,meteohub,2013-07-11 01:07:00,
2013-07-10 20:13:00,75.0,57.7,30.00,NNW,342,0.0,2.0,55,0.00,,,0.00,37.0,meteohub,2013-07-11 01:13:00,
2013-07-10 20:19:00,74.8,58.6,30.00,NNW,342,0.0,2.0,57,0.00,,,0.00,30.0,meteohub,2013-07-11 01:19:00,
2013-07-10 20:25:00,74.5,58.3,30.00,NNW,342,0.0,0.0,57,0.00,,,0.00,25.0,meteohub,2013-07-11 01:25:00,
2013-07-10 20:31:00,74.1,58.5,30.00,NNW,342,0.0,0.0,58,0.00,,,0.00,21.0,meteohub,2013-07-11 01:31:00,
2013-07-10 20:38:00,73.8,59.0,30.00,NNW,342,0.0,1.0,60,0.00,,,0.00,16.0,meteohub,2013-07-11 01:38:00,
2013-07-10 20:44:00,73.4,59.2,30.00,NNW,342,0.0,0.0,61,0.00,,,0.00,12.0,meteohub,2013-07-11 01:44:00,
2013-07-10 20:50:00,72.9,59.0,30.01,NNW,342,0.0,0.0,62,0.00,,,0.00,9.0,meteohub,2013-07-11 01:50:00,
2013-07-10 20:56:00,72.3,59.0,30.01,NNW,342,0.0,0.0,63,0.00,,,0.00,7.0,meteohub,2013-07-11 01:56:00,
2013-07-10 21:02:00,72.1,59.4,30.01,NNW,342,0.0,0.0,64,0.00,,,0.00,5.0,meteohub,2013-07-11 02:02:00,
2013-07-10 21:08:00,71.6,59.2,30.01,NNW,342,0.0,0.0,65,0.00,,,0.00,0.0,meteohub,2013-07-11 02:08:00,
2013-07-10 21:15:00,71.1,59.2,30.01,NNW,342,0.0,0.0,66,0.00,,,0.00,0.0,meteohub,2013-07-11 02:15:00,
2013-07-10 21:21:00,70.9,59.4,30.01,NNW,342,0.0,0.0,67,0.00,,,0.00,0.0,meteohub,2013-07-11 02:21:00,
2013-07-10 21:27:00,70.3,59.4,30.02,NNW,342,0.0,0.0,68,0.00,,,0.00,0.0,meteohub,2013-07-11 02:27:00,
2013-07-10 21:33:00,70.0,59.0,30.02,NNW,342,0.0,0.0,68,0.00,,,0.00,0.0,meteohub,2013-07-11 02:33:00,
2013-07-10 21:39:00,69.6,59.0,30.02,NNW,342,0.0,0.0,69,0.00,,,0.00,0.0,meteohub,2013-07-11 02:39:00,
2013-07-10 21:45:00,69.4,58.8,30.02,NNW,342,0.0,0.0,69,0.00,,,0.00,0.0,meteohub,2013-07-11 02:45:00,
2013-07-10 21:52:00,69.3,58.6,30.02,NNW,342,0.0,0.0,69,0.00,,,0.00,0.0,meteohub,2013-07-11 02:52:00,
2013-07-10 21:58:00,69.1,58.8,30.03,NNW,342,0.0,0.0,70,0.00,,,0.00,0.0,meteohub,2013-07-11 02:58:00,
2013-07-10 22:04:00,68.9,58.6,30.03,NNW,342,0.0,0.0,70,0.00,,,0.00,0.0,meteohub,2013-07-11 03:04:00,
2013-07-10 22:10:00,68.7,58.1,30.03,NNW,342,0.0,0.0,69,0.00,,,0.00,0.0,meteohub,2013-07-11 03:10:00,
2013-07-10 22:16:00,68.5,58.3,30.04,NNW,342,0.0,0.0,70,0.00,,,0.00,0.0,meteohub,2013-07-11 03:16:00,
2013-07-10 22:22:00,68.5,57.9,30.04,NNW,342,0.0,0.0,69,0.00,,,0.00,0.0,meteohub,2013-07-11 03:22:00,
2013-07-10 22:29:00,68.4,58.3,30.04,NNW,342,0.0,0.0,70,0.00,,,0.00,0.0,meteohub,2013-07-11 03:29:00,
2013-07-10 22:35:00,68.4,58.3,30.04,NNW,342,0.0,0.0,70,0.00,,,0.00,0.0,meteohub,2013-07-11 03:35:00,
2013-07-10 22:41:00,68.2,58.5,30.04,NNW,342,0.0,0.0,71,0.00,,,0.00,0.0,meteohub,2013-07-11 03:41:00,
2013-07-10 22:47:00,67.8,58.5,30.04,NNW,342,0.0,0.0,72,0.00,,,0.00,0.0,meteohub,2013-07-11 03:47:00,
2013-07-10 22:53:00,67.8,58.5,30.04,NNW,342,0.0,0.0,72,0.00,,,0.00,0.0,meteohub,2013-07-11 03:53:00,
2013-07-10 22:59:00,67.6,58.3,30.05,NNW,342,0.0,0.0,72,0.00,,,0.00,0.0,meteohub,2013-07-11 03:59:00,
2013-07-10 23:01:00,67.6,58.3,30.05,NNW,342,0.0,0.0,72,0.00,,,0.00,0.0,meteohub,2013-07-11 04:01:00,
2013-07-10 23:04:00,67.6,58.3,30.05,NNW,342,0.0,0.0,72,0.00,,,0.00,0.0,meteohub,2013-07-11 04:04:00,
2013-07-10 23:10:00,67.5,58.5,30.05,NNW,342,0.0,0.0,73,0.00,,,0.00,0.0,meteohub,2013-07-11 04:10:00,
2013-07-10 23:12:00,67.5,58.5,30.05,NNW,342,0.0,0.0,73,0.00,,,0.00,0.0,meteohub,2013-07-11 04:12:00,
2013-07-10 23:18:00,67.5,59.2,30.05,NNW,342,0.0,0.0,75,0.00,,,0.00,0.0,meteohub,2013-07-11 04:18:00,
2013-07-10 23:24:00,67.1,59.4,30.06,NNW,342,0.0,2.0,76,0.00,,,0.00,0.0,meteohub,2013-07-11 04:24:00,
2013-07-10 23:30:00,66.9,59.2,30.06,NNW,342,0.0,2.0,76,0.00,,,0.00,0.0,meteohub,2013-07-11 04:30:00,
2013-07-10 23:36:00,66.7,59.0,30.06,NNW,342,0.0,2.0,76,0.00,,,0.00,0.0,meteohub,2013-07-11 04:36:00,
2013-07-10 23:43:00,66.7,59.0,30.06,NNW,342,0.0,2.0,76,0.00,,,0.00,0.0,meteohub,2013-07-11 04:43:00,
2013-07-10 23:49:00,66.6,58.8,30.06,NNW,342,0.0,1.0,76,0.00,,,0.00,0.0,meteohub,2013-07-11 04:49:00,
2013-07-10 23:55:00,66.6,59.2,30.06,NNW,342,0.0,1.0,77,0.00,,,0.00,0.0,meteohub,2013-07-11 04:55:00,